Main page
METAR-TAF:

METAR-TAF

Airports :

Zabol Airport

Zabol, Iran

latitude: 31-20N, longitude: 061-29E, elevation: 489 m

Current weather observation

The report was made 18 minutes ago, at 17:00 UTC
Wind 12 kt from the South
Temperature 31°C
Humidity 27%
Pressure 1004 hPa
Visibility: 4000 m
sand, widespread dust

METAR: OIZB 231700Z 18012KT 4000 SA DU NSC 31/10 Q1004

Time: 21:48 (17:18 UTC)


TAF: missing

Weather observations and forecasts of more than 4000 airports (METAR and TAF reports).

The available stations are represented by yellow and red dots on the map.

Hover mouse over dot to see the name of the station.

Then click to see weather observations and forecasts.

To change the map : click on the green buttons with a black cross to zoom in, on the green button with a dash to zoom out, or on the green arrows for adjacent maps.


METAR-TAF: